Mora, MN

3:18 AM CDT on June 28, 2017 (GMT -0500)
Mora Municipal

Weather History for KJMR - October, 2014

Change the Weather History Date:

Saturday, October 4, 2014

  Actual Average Record
Temperature  
Mean Temperature 40 °F -  
Max Temperature 46 °F 64 °F 82 °F (1969)
Min Temperature 32 °F 37 °F 19 °F (1989)
Degree Days  
Heating Degree Days 26    
Moisture  
Dew Point 31 °F    
Average Humidity 72    
Maximum Humidity 93    
Minimum Humidity 53    
Precipitation  
Precipitation 0.01 in - - ()
Sea Level Pressure  
Sea Level Pressure 29.73 in    
Wind  
Wind Speed 13 mph (WNW)    
Max Wind Speed 21 mph    
Max Gust Speed 29 mph    
Visibility 10 miles    
Events Rain    
Averages and records for this station are not official NWS values.
T = Trace of Precipitation, MM = Missing Value Source: NWS Daily Summary

Daily Weather History Graph

Daily Weather History Graph

Search for Another Location

Airport or City:

Trip Planner

Search our weather history database for the weather conditions in past years. The results will help you decide how hot, cold, wet, or windy it might be!

Date:

Astronomy

Oct. 04, 2014 Rise Set
Actual Time 7:15 AM CDT 6:47 PM CDT
Civil Twilight 6:45 AM CDT 7:17 PM CDT
Nautical Twilight 6:11 AM CDT 7:51 PM CDT
Astronomical Twilight 5:36 AM CDT 8:26 PM CDT
Moon 4:35 PM CDT (10/4) 2:30 AM CDT (10/4)
Length of Visible Light 12h 31m
Length of Day
11h 32m
Waxing Gibbous, 81% of the Moon is Illuminated
Oct 4
Waxing Gibbous
Oct 8
Full
Oct 15
Last Quarter
Oct 23
New
Oct 30
First Quarter

Hourly Weather History & Observations

Time (CDT) Temp. Windchill Dew Point Humidity Pressure Visibility Wind Dir Wind Speed Gust Speed Precip Events Conditions
12:14 AM 35.6 °F 27.1 °F 33.8 °F 93% 29.71 in 4.0 mi WNW 12.7 mph 21.9 mph N/A Rain Rain
12:34 AM 35.6 °F 26.6 °F 33.8 °F 93% 29.71 in 5.0 mi NW 13.8 mph 23.0 mph 0.01 in Rain Light Rain
12:54 AM 35.6 °F 27.1 °F 33.8 °F 93% 29.71 in 10.0 mi WNW 12.7 mph - 0.01 in   Mostly Cloudy
1:14 AM 37.4 °F 28.9 °F 33.8 °F 87% 29.71 in 7.0 mi NW 13.8 mph 21.9 mph N/A   Mostly Cloudy
1:34 AM 37.4 °F 27.8 °F 33.8 °F 87% 29.72 in 10.0 mi NW 17.3 mph 25.3 mph N/A   Mostly Cloudy
1:54 AM 37.4 °F 28.2 °F 33.8 °F 87% 29.73 in 10.0 mi NW 16.1 mph 23.0 mph N/A   Overcast
2:14 AM 37.4 °F 30.3 °F 33.8 °F 87% 29.73 in 10.0 mi NW 10.4 mph 21.9 mph N/A   Drizzle
2:34 AM 37.4 °F 31.4 °F 33.8 °F 87% 29.73 in 10.0 mi WNW 8.1 mph - N/A Rain Light Rain
2:54 AM 37.4 °F 30.8 °F 33.8 °F 87% 29.73 in 10.0 mi NW 9.2 mph - N/A   Light Drizzle
3:14 AM 37.4 °F 28.5 °F 33.8 °F 87% 29.72 in 10.0 mi NW 15.0 mph 27.6 mph N/A   Overcast
3:34 AM 37.4 °F 28.2 °F 33.8 °F 87% 29.72 in 10.0 mi NNW 16.1 mph 23.0 mph N/A   Overcast
3:54 AM 39.2 °F 32.5 °F 33.8 °F 81% 29.72 in 10.0 mi NW 10.4 mph 19.6 mph N/A   Overcast
4:14 AM 39.2 °F 31.2 °F 33.8 °F 81% 29.72 in 10.0 mi NNW 13.8 mph 19.6 mph N/A   Overcast
4:24 AM 39.2 °F 31.6 °F 33.8 °F 81% 29.72 in 10.0 mi NW 12.7 mph 26.5 mph N/A   Overcast
4:45 AM 39.2 °F 33.0 °F 33.8 °F 81% 29.72 in 10.0 mi WNW 9.2 mph - N/A   Overcast
5:05 AM 39.2 °F 33.0 °F 33.8 °F 81% 29.73 in 10.0 mi WNW 9.2 mph - N/A   Overcast
5:25 AM 39.2 °F 34.2 °F 33.8 °F 81% 29.73 in 10.0 mi WNW 6.9 mph - N/A   Overcast
5:45 AM 39.2 °F 34.2 °F 33.8 °F 81% 29.73 in 10.0 mi WNW 6.9 mph - N/A   Overcast
6:05 AM 39.2 °F 31.2 °F 33.8 °F 81% 29.73 in 10.0 mi NW 13.8 mph 19.6 mph N/A   Mostly Cloudy
6:25 AM 39.2 °F 30.2 °F 33.8 °F 81% 29.73 in 10.0 mi NW 17.3 mph 26.5 mph N/A   Overcast
6:45 AM 39.2 °F 32.5 °F 33.8 °F 81% 29.74 in 10.0 mi WNW 10.4 mph 17.3 mph N/A   Mostly Cloudy
7:05 AM 39.2 °F 30.2 °F 32.0 °F 75% 29.74 in 10.0 mi NNW 17.3 mph 24.2 mph N/A   Mostly Cloudy
7:25 AM 39.2 °F 30.2 °F 32.0 °F 75% 29.74 in 10.0 mi NW 17.3 mph 24.2 mph N/A   Mostly Cloudy
7:45 AM 39.2 °F 30.8 °F 32.0 °F 75% 29.75 in 10.0 mi NNW 15.0 mph 21.9 mph N/A   Mostly Cloudy
8:05 AM 39.2 °F 30.8 °F 32.0 °F 75% 29.75 in 10.0 mi NNW 15.0 mph 27.6 mph N/A   Mostly Cloudy
8:25 AM 39.2 °F 30.8 °F 32.0 °F 75% 29.75 in 10.0 mi NW 15.0 mph 21.9 mph N/A   Mostly Cloudy
8:45 AM 39.2 °F 29.8 °F 32.0 °F 75% 29.75 in 10.0 mi NNW 18.4 mph 27.6 mph N/A   Mostly Cloudy
9:05 AM 39.2 °F 32.5 °F 32.0 °F 75% 29.75 in 10.0 mi WNW 10.4 mph 17.3 mph N/A   Mostly Cloudy
9:25 AM 39.2 °F 31.6 °F 33.8 °F 81% 29.75 in 10.0 mi WNW 12.7 mph 18.4 mph N/A   Mostly Cloudy
9:45 AM 39.2 °F 30.2 °F 33.8 °F 81% 29.76 in 10.0 mi WNW 17.3 mph 23.0 mph N/A   Mostly Cloudy
10:05 AM 39.2 °F 31.6 °F 33.8 °F 81% 29.76 in 10.0 mi WNW 12.7 mph 21.9 mph N/A   Mostly Cloudy
10:25 AM 41.0 °F 33.9 °F 33.8 °F 76% 29.76 in 10.0 mi WNW 12.7 mph 19.6 mph N/A   Mostly Cloudy
10:45 AM 42.8 °F 35.8 °F 35.6 °F 76% 29.76 in 10.0 mi NW 13.8 mph 21.9 mph N/A   Mostly Cloudy
11:05 AM 42.8 °F 34.5 °F 32.0 °F 66% 29.77 in 10.0 mi NW 18.4 mph 26.5 mph N/A   Mostly Cloudy
11:25 AM 44.6 °F 36.9 °F 32.0 °F 61% 29.77 in 10.0 mi WNW 18.4 mph 27.6 mph N/A   Mostly Cloudy
11:45 AM 46.4 °F 39.0 °F 32.0 °F 57% 29.76 in 10.0 mi WNW 19.6 mph 27.6 mph N/A   Mostly Cloudy
12:05 PM 46.4 °F 38.7 °F 32.0 °F 57% 29.75 in 10.0 mi NW 20.7 mph 27.6 mph N/A   Scattered Clouds
12:25 PM 46.4 °F 39.5 °F 32.0 °F 57% 29.75 in 10.0 mi NW 17.3 mph 28.8 mph N/A   Scattered Clouds
12:45 PM 46.4 °F 40.7 °F 32.0 °F 57% 29.75 in 10.0 mi WNW 12.7 mph 28.8 mph N/A   Scattered Clouds
1:05 PM 46.4 °F 39.8 °F 32.0 °F 57% 29.75 in 10.0 mi WNW 16.1 mph 21.9 mph N/A   Scattered Clouds
1:25 PM 46.4 °F 39.5 °F 32.0 °F 57% 29.75 in 10.0 mi West 17.3 mph 24.2 mph N/A   Mostly Cloudy
1:45 PM 46.4 °F 40.7 °F 30.2 °F 53% 29.75 in 10.0 mi NW 12.7 mph - N/A   Overcast
2:05 PM 46.4 °F 39.5 °F 30.2 °F 53% 29.75 in 10.0 mi WNW 17.3 mph 24.2 mph N/A   Overcast
2:25 PM 46.4 °F 39.5 °F 30.2 °F 53% 29.75 in 10.0 mi NW 17.3 mph 25.3 mph N/A   Overcast
2:45 PM 46.4 °F 40.1 °F 32.0 °F 57% 29.75 in 10.0 mi NW 15.0 mph 21.9 mph N/A   Overcast
3:05 PM 46.4 °F 39.8 °F 32.0 °F 57% 29.75 in 10.0 mi WNW 16.1 mph 23.0 mph N/A   Overcast
3:25 PM 46.4 °F 40.1 °F 32.0 °F 57% 29.75 in 10.0 mi NW 15.0 mph 20.7 mph N/A   Overcast
3:45 PM 46.4 °F 39.5 °F 32.0 °F 57% 29.74 in 10.0 mi NW 17.3 mph 24.2 mph N/A   Overcast
4:05 PM 46.4 °F 40.4 °F 30.2 °F 53% 29.74 in 10.0 mi NW 13.8 mph 23.0 mph N/A   Overcast
4:25 PM 46.4 °F 40.1 °F 30.2 °F 53% 29.73 in 10.0 mi WNW 15.0 mph 19.6 mph N/A   Overcast
4:45 PM 46.4 °F 40.7 °F 30.2 °F 53% 29.73 in 10.0 mi NW 12.7 mph 17.3 mph N/A   Overcast
5:05 PM 44.6 °F 38.8 °F 30.2 °F 57% 29.73 in 10.0 mi NW 11.5 mph 19.6 mph N/A   Overcast
5:25 PM 42.8 °F 35.1 °F 28.4 °F 57% 29.73 in 10.0 mi WNW 16.1 mph 19.6 mph N/A   Overcast
5:45 PM 42.8 °F 36.6 °F 28.4 °F 57% 29.73 in 10.0 mi NW 11.5 mph 20.7 mph N/A   Overcast
6:05 PM 42.8 °F 35.8 °F 28.4 °F 57% 29.73 in 10.0 mi NW 13.8 mph 25.3 mph N/A   Overcast
6:25 PM 41.0 °F 34.7 °F 26.6 °F 57% 29.73 in 10.0 mi WNW 10.4 mph 19.6 mph N/A   Mostly Cloudy
6:45 PM 41.0 °F 35.2 °F 26.6 °F 57% 29.73 in 10.0 mi WNW 9.2 mph - N/A   Overcast
7:05 PM 39.2 °F 32.5 °F 26.6 °F 61% 29.73 in 10.0 mi WNW 10.4 mph 16.1 mph N/A   Overcast
7:25 PM 39.2 °F 33.0 °F 26.6 °F 61% 29.73 in 10.0 mi WNW 9.2 mph - N/A   Mostly Cloudy
7:45 PM 39.2 °F 34.2 °F 26.6 °F 61% 29.73 in 10.0 mi WNW 6.9 mph - N/A   Clear
8:05 PM 37.4 °F 32.1 °F 26.6 °F 65% 29.72 in 10.0 mi WNW 6.9 mph - N/A   Clear
8:25 PM 37.4 °F 33.8 °F 28.4 °F 70% 29.72 in 10.0 mi West 4.6 mph - N/A   Clear
8:45 PM 35.6 °F 31.7 °F 28.4 °F 75% 29.72 in 10.0 mi West 4.6 mph - N/A   Clear
9:05 PM 35.6 °F 32.8 °F 30.2 °F 81% 29.71 in 10.0 mi West 3.5 mph - N/A   Clear
9:25 PM 33.8 °F 30.8 °F 28.4 °F 81% 29.70 in 10.0 mi West 3.5 mph - N/A   Clear
9:45 PM 33.8 °F 30.8 °F 28.4 °F 81% 29.70 in 10.0 mi West 3.5 mph - N/A   Clear
10:05 PM 33.8 °F 30.8 °F 28.4 °F 81% 29.70 in 10.0 mi West 3.5 mph - N/A   Clear
10:25 PM 33.8 °F 28.6 °F 28.4 °F 81% 29.69 in 10.0 mi West 5.8 mph - N/A   Clear
10:45 PM 33.8 °F 28.6 °F 28.4 °F 81% 29.69 in 10.0 mi West 5.8 mph - N/A   Clear
11:05 PM 33.8 °F 28.6 °F 28.4 °F 81% 29.68 in 10.0 mi West 5.8 mph - N/A   Clear
11:25 PM 33.8 °F 29.6 °F 28.4 °F 81% 29.68 in 10.0 mi West 4.6 mph - N/A   Clear
11:45 PM 32.0 °F 27.5 °F 28.4 °F 87% 29.67 in 10.0 mi West 4.6 mph - N/A   Clear